(309656) = 2008 DH61

Discovered at Mount Lemmon on 2008-02-28 by Mt. Lemmon Survey.

Orbit

Orbit type: Main Belt

Note: WebGL enabled browser required.

epoch2024-03-31.0
epoch JD2460400.5
perihelion date2024-02-25.76045
perihelion JD2460366.26046
argument of perihelion (°)106.15051
ascending node (°)109.55000
inclination (°)2.97111
eccentricity0.0573862
perihelion distance (AU)2.7947046
Tisserand w.r.t. Jupiter3.3
ΔV w.r.t. Earth (km/sec)10.4
semimajor axis (AU)2.9648457
mean anomaly (°)6.61042
mean daily motion (°/day)0.19306380
aphelion distance (AU)3.135
period (years)5.11
P-vector [x]-0.81086162
P-vector [y]-0.55480285
P-vector [z]-0.18627190
Q-vector [x]0.58319608
Q-vector [y]-0.73944705
Q-vector [z]-0.33630403
absolute magnitude16.8
phase slope0.15
uncertainty0
referenceE2024-GD4
observations used225
oppositions17
arc length (days)9516
first opposition used1998
last opposition used2024
residual rms (arc-secs)0.90
perturbers coarse indicatorM-v
perturbers precise indicator003Ek
first observation date used1998-03-21.0
last observation date used2024-04-09.0
computer nameMPCLINUX
JD of orbit computation2456847.834417
perihelion JD uncertainty (days)2.7092E-04
argument of perihelion uncertainty (°)1.2971E-04
ascending node uncertainty (°)1.1784E-04
inclination uncertainty (°)4.8204E-06
eccentricity uncertainty 5.3292E-08
perihelion distance uncertainty (AU)1.5324E-07
Minimum Orbit Intersection Distances (in AU)
for orbit epoch: 2460400.5, reference: E2024-GD4
Mercury2.3446
Venus2.07192
Earth1.78936
Mars1.17196
Jupiter1.82711
Saturn5.9636
Uranus15.5741
Neptune26.6887

Observations

234 total observations over interval: 1998 03 21.32518 – 2023 02 19.19171
These data are available for download (format description).

Date (UT) J2000 RA J2000 Dec Magn Location Ref
1998 03 21.32518 12 36 14.14 +00 54 49.9 20.8 V 691 – Steward Observatory, Kitt Peak-Spacewatch MPS 244119
1998 03 21.34821 12 36 13.06 +00 54 57.4 20.6 V 691 – Steward Observatory, Kitt Peak-Spacewatch MPS 244119
1998 03 21.37048 12 36 12.06 +00 55 05.4 21.3 V 691 – Steward Observatory, Kitt Peak-Spacewatch MPS 244119
2000 09 30.42548 00 41 57.54 -00 09 15.5 21.9 V 691 – Steward Observatory, Kitt Peak-Spacewatch MPS 244119
2000 09 30.44714 00 41 56.52 -00 09 22.3 21.9 V 691 – Steward Observatory, Kitt Peak-Spacewatch MPS 244119
2000 09 30.46886 00 41 55.47 -00 09 29.2 21.9 V 691 – Steward Observatory, Kitt Peak-Spacewatch MPS 244119
2003 04 01.237650 11 41 50.080 +06 34 05.52 20.80 V 645 – Apache Point-Sloan Digital Sky Survey MPS 244119
2003 04 01.241122 11 41 49.929 +06 34 06.38 21.57   645 – Apache Point-Sloan Digital Sky Survey MPS 244119
2006 11 20.29365 05 28 16.75 +20 47 37.9 21.2 V G96 – Mt. Lemmon Survey MPS 244119
2006 11 20.29856 05 28 16.60 +20 47 38.1 20.9 V G96 – Mt. Lemmon Survey MPS 244119
2006 11 20.30352 05 28 16.32 +20 47 38.1 21.1 V G96 – Mt. Lemmon Survey MPS 244119
2006 11 20.30845 05 28 16.14 +20 47 38.2 21.5 V G96 – Mt. Lemmon Survey MPS 244119
2008 02 13.38002 11 28 12.18 +07 08 57.6 20.8 V 691 – Steward Observatory, Kitt Peak-Spacewatch MPS 247630
2008 02 13.39768 11 28 11.53 +07 09 02.6 20.9 V 691 – Steward Observatory, Kitt Peak-Spacewatch MPS 247630
2008 02 13.41296 11 28 11.04 +07 09 07.5 21.1 V 691 – Steward Observatory, Kitt Peak-Spacewatch MPS 247630
2008 02 28.25436 11 18 21.99 +08 28 47.3 21.1 V G96 – Mt. Lemmon Survey MPS 242305
2008 02 28.26255 11 18 21.60 +08 28 50.1 20.6 V G96 – Mt. Lemmon Survey MPS 242305
2008 02 28.27074 11 18 21.20 +08 28 52.7 20.6 V G96 – Mt. Lemmon Survey MPS 242305
2008 02 28.27895 11 18 20.80 +08 28 55.4 20.5 V G96 – Mt. Lemmon Survey MPS 242305
2008 03 06.25441 11 12 57.88 +09 08 17.3 20.5 V G96 – Mt. Lemmon Survey MPS 242305
2008 03 06.26248 11 12 57.49 +09 08 20.0 20.6 V G96 – Mt. Lemmon Survey MPS 242305
2008 03 06.26903 11 12 57.20 +09 08 22.5 20.8 V G96 – Mt. Lemmon Survey MPS 242305
2008 03 06.27549 11 12 56.80 +09 08 23.6 20.0 V G96 – Mt. Lemmon Survey MPS 242305
2008 03 11.15512 11 09 07.07 +09 35 02.1 20.6 V 691 – Steward Observatory, Kitt Peak-Spacewatch MPS 244119
2008 03 11.17281 11 09 06.20 +09 35 08.2 20.6 V 691 – Steward Observatory, Kitt Peak-Spacewatch MPS 244119
2008 03 11.19053 11 09 05.37 +09 35 13.8 20.5 V 691 – Steward Observatory, Kitt Peak-Spacewatch MPS 244119
2008 03 14.37781 11 06 36.93 +09 51 46.6 20.5 V G96 – Mt. Lemmon Survey MPS 244119
2008 03 14.38572 11 06 36.54 +09 51 49.4 20.2 V G96 – Mt. Lemmon Survey MPS 244119
2008 03 14.40053 11 06 35.85 +09 51 53.6 20.2 V G96 – Mt. Lemmon Survey MPS 244119
2008 03 14.40777 11 06 35.49 +09 51 55.7 20.3 V G96 – Mt. Lemmon Survey MPS 244119
2010 09 03.35753 23 44 43.36 -05 47 02.4 20.8 V G96 – Mt. Lemmon Survey MPS 346381
2010 09 03.36341 23 44 43.11 -05 47 04.0 21.1 V G96 – Mt. Lemmon Survey MPS 346381
2010 09 03.36933 23 44 42.86 -05 47 05.4 21.0 V G96 – Mt. Lemmon Survey MPS 346381
2010 09 03.37520 23 44 42.61 -05 47 07.4 21.0 V G96 – Mt. Lemmon Survey MPS 346381
2010 09 15.452151 23 35 49.698 -06 51 25.20 21.01 w F51 – Pan-STARRS 1, Haleakala MPS 365725
2010 09 15.472121 23 35 48.764 -06 51 31.31 21.00 w F51 – Pan-STARRS 1, Haleakala MPS 365725
2010 09 15.482240 23 35 48.283 -06 51 35.01 21.01 w F51 – Pan-STARRS 1, Haleakala MPS 365725
2010 09 16.492478 23 35 02.481 -06 56 49.14 21.09 w F51 – Pan-STARRS 1, Haleakala MPS 365725
2010 09 16.503920 23 35 01.945 -06 56 52.65 21.09 w F51 – Pan-STARRS 1, Haleakala MPS 365725
2010 09 16.515475 23 35 01.400 -06 56 56.31 21.07 w F51 – Pan-STARRS 1, Haleakala MPS 365725
2010 09 16.526928 23 35 00.868 -06 56 59.81 21.03 w F51 – Pan-STARRS 1, Haleakala MPS 365725
2010 10 09.16751 23 19 33.20 -08 33 25.7 21.3 V G96 – Mt. Lemmon Survey MPS 351376
2010 10 09.17437 23 19 32.95 -08 33 27.3 21.4 V G96 – Mt. Lemmon Survey MPS 351376
2010 10 09.18133 23 19 32.73 -08 33 28.1 21.4 V G96 – Mt. Lemmon Survey MPS 351376
2010 10 09.18822 23 19 32.48 -08 33 29.4 21.5 V G96 – Mt. Lemmon Survey MPS 351376
2011 11 18.17158 04 46 04.09 +19 25 41.1 21.8 V 691 – Steward Observatory, Kitt Peak-Spacewatch MPS 400075
2011 11 18.18935 04 46 03.19 +19 25 39.9 21.5 V 691 – Steward Observatory, Kitt Peak-Spacewatch MPS 400075
2011 11 18.20712 04 46 02.32 +19 25 38.7 21.3 V 691 – Steward Observatory, Kitt Peak-Spacewatch MPS 400075
2011 11 27.33978 04 38 13.05 +19 14 13.6 20.8 V G96 – Mt. Lemmon Survey MPS 402444
2011 11 27.35023 04 38 12.51 +19 14 12.9 20.2 V G96 – Mt. Lemmon Survey MPS 402444
2011 11 27.36071 04 38 11.90 +19 14 12.5 21.0 V G96 – Mt. Lemmon Survey MPS 402444
2011 11 27.37120 04 38 11.29 +19 14 10.8 21.0 V G96 – Mt. Lemmon Survey MPS 402444
2011 12 26.18649 04 14 12.58 +18 43 50.0 21.6 V G96 – Mt. Lemmon Survey MPS 405901
2011 12 26.19355 04 14 12.30 +18 43 49.9 21.5 V G96 – Mt. Lemmon Survey MPS 405901
2011 12 26.20064 04 14 11.94 +18 43 50.0 21.4 V G96 – Mt. Lemmon Survey MPS 405902
2011 12 26.20780 04 14 11.65 +18 43 49.1 21.0 V G96 – Mt. Lemmon Survey MPS 405902
2013 02 09.38198 10 38 36.346 +11 45 50.38 20.9 w F51 – Pan-STARRS 1, Haleakala MPS 456244
2013 02 09.39692 10 38 35.700 +11 45 55.29 21.4 w F51 – Pan-STARRS 1, Haleakala MPS 456244
2013 02 09.41207 10 38 35.030 +11 46 00.09 21.4 w F51 – Pan-STARRS 1, Haleakala MPS 456244
2013 02 09.42723 10 38 34.376 +11 46 05.01 21.0 w F51 – Pan-STARRS 1, Haleakala MPS 456244
2013 02 14.39810 10 34 56.06 +12 12 58.5 20.3 V G96 – Mt. Lemmon Survey MPS 456244
2013 02 14.40397 10 34 55.74 +12 13 00.7 20.0 V G96 – Mt. Lemmon Survey MPS 456244
2013 02 14.40984 10 34 55.48 +12 13 02.6 20.1 V G96 – Mt. Lemmon Survey MPS 456244
2013 02 14.41574 10 34 55.20 +12 13 04.1 20.5 V G96 – Mt. Lemmon Survey MPS 456244
2013 02 16.23621 10 33 31.67 +12 23 04.7 20.8 V 691 – Steward Observatory, Kitt Peak-Spacewatch MPS 457260
2013 02 16.25393 10 33 30.80 +12 23 10.5 20.4 V 691 – Steward Observatory, Kitt Peak-Spacewatch MPS 457260
2013 02 16.27167 10 33 30.04 +12 23 15.8 21.2 V 691 – Steward Observatory, Kitt Peak-Spacewatch MPS 457260
2014 05 28.43543 16 53 23.406 -19 42 04.87 20.3 w F51 – Pan-STARRS 1, Haleakala MPS 517769
2014 05 28.46728 16 53 21.711 -19 42 03.36 20.4 w F51 – Pan-STARRS 1, Haleakala MPS 517769
2014 06 23.29331 16 32 02.13 -19 27 13.9 20.6 V G96 – Mt. Lemmon Survey MPS 521198
2014 06 23.29940 16 32 01.87 -19 27 13.8 20.6 V G96 – Mt. Lemmon Survey MPS 521198
2014 06 23.30549 16 32 01.60 -19 27 14.0 20.3 V G96 – Mt. Lemmon Survey MPS 521198
2014 06 23.31159 16 32 01.34 -19 27 14.0 20.2 V G96 – Mt. Lemmon Survey MPS 521198
2014 06 26.33478 16 29 59.970 -19 26 40.82 21.0 w F51 – Pan-STARRS 1, Haleakala MPS 521198
2014 06 26.34539 16 29 59.569 -19 26 40.55 20.8 w F51 – Pan-STARRS 1, Haleakala MPS 521198
2014 06 26.35603 16 29 59.145 -19 26 40.51 21.0 w F51 – Pan-STARRS 1, Haleakala MPS 521198
2014 06 26.36667 16 29 58.699 -19 26 40.60 21.0 w F51 – Pan-STARRS 1, Haleakala MPS 521198
2014 06 28.33413 16 28 45.284 -19 26 32.19 21.2 w F51 – Pan-STARRS 1, Haleakala MPS 522126
2014 06 28.34471 16 28 44.877 -19 26 32.13 21.5 w F51 – Pan-STARRS 1, Haleakala MPS 522126
2014 06 28.35530 16 28 44.476 -19 26 32.17 21.6 w F51 – Pan-STARRS 1, Haleakala MPS 522126
2014 06 28.36590 16 28 44.065 -19 26 32.14 21.3 w F51 – Pan-STARRS 1, Haleakala MPS 522126
2015 08 14.48868 23 20 32.948 -07 48 30.22 21.3 w F51 – Pan-STARRS 1, Haleakala MPS 623136
2015 08 14.50095 23 20 32.522 -07 48 33.61 21.2 w F51 – Pan-STARRS 1, Haleakala MPS 623136
2015 08 14.51319 23 20 32.108 -07 48 37.16 21.1 w F51 – Pan-STARRS 1, Haleakala MPS 623136
2015 08 14.52542 23 20 31.674 -07 48 40.49 21.1 w F51 – Pan-STARRS 1, Haleakala MPS 623136
2016 11 18.38833 04 04 43.82 +17 27 38.3 21.1 V 691 – Steward Observatory, Kitt Peak-Spacewatch MPS 747082
2016 11 18.39751 04 04 43.41 +17 27 36.9 21.1 V 691 – Steward Observatory, Kitt Peak-Spacewatch MPS 747082
2016 11 18.40671 04 04 42.86 +17 27 35.9 20.7 V 691 – Steward Observatory, Kitt Peak-Spacewatch MPS 747083
2016 11 26.45688 03 57 37.480 +17 11 19.75 20.9 w F51 – Pan-STARRS 1, Haleakala MPS 749260
